Showing default

HULIANWANG DIGUI-182, 100207

Orbit data source: Space-Track

HULIANWANG DIGUI-182, 100207 is a payload satellite owned by Zhongguo Xingwang (CN) in LEO that was launched on Tue, 04 Aug 2026 UTC launched from the Wenchang Satellite Launch Center (WSC). Payload-class satellites include a variety of spacecraft equipped with specific instruments for various scientific and technological missions. These include communications satellites like Starlink; space stations such as the ISS; scientific satellites like the Hubble; Earth observation satellites from companies like Planet Labs, Umbra, and HawkEye 360; GPS; miniature CubeSats for education and research; and military/defense satellites.

Loading next visibility...
Identifier
100207, 2026-176E
Orbit
LEO
Country
Flag of CNCN / PRC
Related business
Manufacturer
CAST?
Mission
Operational spacecraft
Bus & Motor
XINGWANG C, Unknown motor
Mass
~700 kg wet, ~700 kg dry
Launch date (UTC)
2026-08-04 (2 months ago)
Launch vehicle
Unknown
Launch site
Wenchang Satellite Launch Center (WSC)
Object type
Payload
Rocket body
Debris
Shape & HBR
BOX + 2 PAN, 14.5 m
Radar Cross Section
Large (>1 m²)

Expand to show TLE details & history
Last TLE update: 19 hours ago

TLE from 19 hours ago
0 HULIANWANG DIGUI-182
1 A0207U 26176E   26263.31053811 -.00000080  00000-0  94395-4 0  9995
2 A0207  49.9875 224.6253 0000303  26.5907 333.4980 13.29327832  6277
Epoch: 2026-09-20T07:27Z
TLE epoch observation values (Epoch: 2026-09-20T07:27:10.492Z)
Latitude
-0.00006°
Longitude
113.62498°
Altitude
1,149.6 km
Speed
7.279 km/s
True Right ascension
14h 58m 30s
True Declination
0° 00' 00"
Sunlit
Object was in daylight at epoch
Visualization orbit readout
Latitude
Unknown
Longitude
Unknown
Altitude
Unknown
Speed
Unknown
Apparent Right ascension
Unknown
Apparent Declination
Unknown
Sunlit
N/A
Visualization observer readout
Local Sidereal Time
19:11:04
Azimuth
Unknown
Elevation
Unknown
Doppler factor
Unknown
Orbital elements
Apogee altitude
1,150.235 km
Perigee altitude
1,149.779 km
Semi-major axis
7,528.144 km
Eccentricity
0.00003
Inclination
49.9875°
RAAN
224.6253°
Arg. of periapsis
26.5907°
True anomaly
333.49645°
Mean anomaly
333.498°
Eccentric anomaly
333.49723°
Mean motion
3.32285 °/min
Orbital period
108.34 mins
BSTAR
0.000094395
Loading maneuver chart data...
Computing Atmospheric mass density...
Loading historical data...
Loading historical data...
Loading historical data...
Loading historical data...
Loading historical data...
Loading historical data...
Loading historical data...

Documentation

Showing up to 5 results
|